| time (UTC) | temp F | wind direction | speed MPH | gust MPH | rain 1hr in | rain 24hr in | rain mn in | humidity % | barometer mb |
| 20260906194552 | 63 | 142 | 2.0 | 6.0 | 0.00 | 0.01 | 0.01 | 78 | 1017.8 |
| 20260906193050 | 63 | 314 | 1.0 | 5.0 | 0.00 | 0.01 | 0.01 | 79 | 1017.8 |
| 20260906191555 | 62 | 69 | 1.0 | 4.0 | 0.00 | 0.01 | 0.01 | 81 | 1017.8 |
| 20260906190106 | 61 | 88 | 1.0 | 6.0 | 0.00 | 0.01 | 0.01 | 82 | 1017.9 |
| 20260906184549 | 61 | 0 | 1.0 | 3.0 | 0.00 | 0.01 | 0.01 | 84 | 1017.9 |
| 20260906183109 | 60 | 108 | 0.0 | 2.0 | 0.00 | 0.01 | 0.01 | 86 | 1017.9 |
| 20260906181555 | 59 | 57 | 1.0 | 6.0 | 0.00 | 0.01 | 0.01 | 89 | 1017.9 |
| 20260906180109 | 59 | 96 | 3.0 | 7.0 | 0.00 | 0.01 | 0.01 | 87 | 1017.8 |
| 20260906174548 | 59 | 74 | 0.0 | 3.0 | 0.00 | 0.01 | 0.01 | 91 | 1017.5 |
| 20260906173108 | 58 | 186 | 1.0 | 3.0 | 0.00 | 0.01 | 0.01 | 91 | 1017.5 |
| 20260906171553 | 57 | 0 | 0.0 | 2.0 | 0.00 | 0.01 | 0.01 | 91 | 1017.7 |
| 20260906170113 | 56 | 0 | 0.0 | 2.0 | 0.00 | 0.01 | 0.01 | 94 | 1017.4 |
| 20260906164602 | 55 | 260 | 0.0 | 2.0 | 0.00 | 0.01 | 0.01 | 94 | 1017.3 |
| 20260906163101 | 55 | 260 | 0.0 | 2.0 | 0.00 | 0.01 | 0.01 | 94 | 1017.2 |
| 20260906161551 | 55 | 0 | 0.0 | 0.0 | 0.00 | 0.01 | 0.01 | 94 | 1017.2 |
| 20260906154557 | 54 | 0 | 0.0 | 0.0 | 0.00 | 0.01 | 0.01 | 95 | 1017.0 |
| 20260906153054 | 54 | 0 | 0.0 | 1.0 | 0.00 | 0.01 | 0.01 | 95 | 1017.0 |
| 20260906151607 | 53 | 0 | 0.0 | 2.0 | 0.01 | 0.01 | 0.01 | 95 | 1016.8 |
| 20260906150104 | 53 | 0 | 0.0 | 2.0 | 0.01 | 0.01 | 0.01 | 95 | 1016.7 |
| 20260906144554 | 53 | 174 | 0.0 | 2.0 | 0.01 | 0.01 | 0.01 | 94 | 1016.7 |
| 20260906143123 | 53 | 0 | 0.0 | 2.0 | 0.01 | 0.01 | 0.01 | 94 | 1016.5 |
| 20260906141557 | 53 | 0 | 0.0 | 2.0 | 0.00 | 0.00 | 0.00 | 94 | 1016.4 |
| 20260906140059 | 53 | 0 | 0.0 | 2.0 | 0.00 | 0.00 | 0.00 | 94 | 1016.4 |
| 20260906134559 | 53 | 0 | 0.0 | 2.0 | 0.00 | 0.00 | 0.00 | 94 | 1016.3 |
| 20260906133052 | 53 | 250 | 0.0 | 3.0 | 0.00 | 0.00 | 0.00 | 94 | 1016.1 |
| 20260906131550 | 53 | 274 | 0.0 | 2.0 | 0.00 | 0.00 | 0.00 | 93 | 1016.1 |
| 20260906130059 | 54 | 0 | 0.0 | 2.0 | 0.00 | 0.00 | 0.00 | 93 | 1016.1 |
| 20260906124600 | 54 | 274 | 0.0 | 2.0 | 0.00 | 0.00 | 0.00 | 93 | 1016.1 |
| 20260906123115 | 54 | 0 | 0.0 | 0.0 | 0.00 | 0.00 | 0.00 | 92 | 1016.3 |
| 20260906121547 | 54 | 0 | 0.0 | 2.0 | 0.00 | 0.00 | 0.00 | 91 | 1016.2 |
| 20260906120053 | 54 | 0 | 0.0 | 2.0 | 0.00 | 0.00 | 0.00 | 91 | 1016.3 |
| 20260906114556 | 54 | 0 | 0.0 | 1.0 | 0.00 | 0.00 | 0.00 | 91 | 1016.1 |
| 20260906113051 | 54 | 0 | 0.0 | 1.0 | 0.00 | 0.00 | 0.00 | 92 | 1016.2 |
| 20260906111554 | 54 | 246 | 0.0 | 2.0 | 0.00 | 0.00 | 0.00 | 92 | 1016.3 |
| 20260906110050 | 54 | 281 | 0.0 | 2.0 | 0.00 | 0.00 | 0.00 | 91 | 1016.2 |
| 20260906104552 | 55 | 281 | 1.0 | 2.0 | 0.00 | 0.00 | 0.00 | 90 | 1016.0 |
| 20260906103059 | 55 | 290 | 0.0 | 3.0 | 0.00 | 0.00 | 0.00 | 88 | 1015.9 |
| 20260906101558 | 55 | 301 | 1.0 | 4.0 | 0.00 | 0.00 | 0.00 | 88 | 1015.8 |
| 20260906100055 | 55 | 251 | 0.0 | 2.0 | 0.00 | 0.00 | 0.00 | 89 | 1015.9 |
| 20260906094604 | 55 | 258 | 0.0 | 2.0 | 0.00 | 0.00 | 0.00 | 90 | 1015.9 |
| 20260906093052 | 55 | 0 | 0.0 | 1.0 | 0.00 | 0.00 | 0.00 | 91 | 1015.9 |
| 20260906091603 | 54 | 233 | 1.0 | 3.0 | 0.00 | 0.00 | 0.00 | 91 | 1015.8 |
| 20260906090056 | 55 | 14 | 0.0 | 2.0 | 0.00 | 0.00 | 0.00 | 90 | 1015.9 |
| 20260906084551 | 55 | 0 | 0.0 | 4.0 | 0.00 | 0.00 | 0.00 | 90 | 1016.0 |
| 20260906083058 | 54 | 271 | 0.0 | 2.0 | 0.00 | 0.00 | 0.00 | 91 | 1015.9 |
| 20260906081557 | 54 | 0 | 0.0 | 3.0 | 0.00 | 0.00 | 0.00 | 91 | 1016.1 |
| 20260906080052 | 54 | 254 | 1.0 | 3.0 | 0.00 | 0.00 | 0.00 | 92 | 1016.2 |
| 20260906074552 | 54 | 225 | 0.0 | 2.0 | 0.00 | 0.01 | 0.00 | 92 | 1016.3 |
| 20260906073103 | 53 | 0 | 0.0 | 2.0 | 0.00 | 0.01 | 0.00 | 92 | 1016.4 |
| 20260906071556 | 54 | 269 | 1.0 | 2.0 | 0.00 | 0.01 | 0.00 | 92 | 1016.4 |
| 20260906070053 | 54 | 236 | 0.0 | 2.0 | 0.00 | 0.01 | 0.00 | 91 | 1016.4 |
| 20260906064558 | 55 | 0 | 0.0 | 2.0 | 0.00 | 0.01 | 0.01 | 90 | 1016.4 |
| 20260906063050 | 55 | 283 | 0.0 | 2.0 | 0.00 | 0.01 | 0.01 | 89 | 1016.4 |
| 20260906061551 | 55 | 0 | 0.0 | 2.0 | 0.00 | 0.01 | 0.01 | 88 | 1016.4 |
| 20260906060048 | 55 | 340 | 1.0 | 3.0 | 0.00 | 0.01 | 0.01 | 88 | 1016.5 |
| 20260906054553 | 56 | 290 | 0.0 | 4.0 | 0.00 | 0.01 | 0.01 | 89 | 1016.6 |
| 20260906053102 | 55 | 298 | 0.0 | 4.0 | 0.00 | 0.01 | 0.01 | 89 | 1016.6 |
| 20260906051548 | 55 | 272 | 1.0 | 3.0 | 0.00 | 0.01 | 0.01 | 90 | 1016.6 |
| 20260906050057 | 55 | 250 | 0.0 | 1.0 | 0.00 | 0.01 | 0.01 | 91 | 1016.7 |
| 20260906044552 | 55 | 0 | 1.0 | 3.0 | 0.00 | 0.01 | 0.01 | 90 | 1016.8 |
| 20260906043058 | 56 | 270 | 1.0 | 2.0 | 0.00 | 0.01 | 0.01 | 89 | 1017.1 |
| 20260906041550 | 56 | 276 | 0.0 | 2.0 | 0.00 | 0.01 | 0.01 | 89 | 1017.0 |
| 20260906040055 | 56 | 0 | 1.0 | 3.0 | 0.00 | 0.01 | 0.01 | 89 | 1017.0 |
| 20260906034554 | 56 | 262 | 0.0 | 3.0 | 0.00 | 0.01 | 0.01 | 88 | 1016.8 |
| 20260906033101 | 57 | 260 | 1.0 | 4.0 | 0.00 | 0.01 | 0.01 | 86 | 1016.8 |
| 20260906031550 | 58 | 277 | 2.0 | 6.0 | 0.00 | 0.01 | 0.01 | 85 | 1016.8 |
| 20260906030052 | 58 | 276 | 1.0 | 3.0 | 0.00 | 0.01 | 0.01 | 85 | 1016.7 |
| 20260906024600 | 59 | 259 | 2.0 | 4.0 | 0.00 | 0.01 | 0.01 | 84 | 1016.7 |
| 20260906023056 | 60 | 287 | 0.0 | 6.0 | 0.00 | 0.01 | 0.01 | 81 | 1016.6 |
| 20260906021606 | 61 | 261 | 3.0 | 8.0 | 0.00 | 0.01 | 0.01 | 78 | 1016.6 |
| 20260906020107 | 61 | 294 | 3.0 | 7.0 | 0.00 | 0.01 | 0.01 | 77 | 1016.6 |
| 20260906014547 | 64 | 255 | 2.0 | 8.0 | 0.00 | 0.01 | 0.01 | 73 | 1016.5 |
| 20260906013101 | 65 | 248 | 5.0 | 8.0 | 0.00 | 0.01 | 0.01 | 70 | 1016.6 |
| 20260906011601 | 68 | 264 | 2.0 | 4.0 | 0.00 | 0.01 | 0.01 | 67 | 1016.6 |
| 20260906010057 | 70 | 246 | 1.0 | 4.0 | 0.00 | 0.01 | 0.01 | 54 | 1016.6 |
| 20260906004602 | 70 | 245 | 2.0 | 4.0 | 0.00 | 0.01 | 0.01 | 53 | 1016.6 |
| 20260906003057 | 71 | 232 | 1.0 | 5.0 | 0.00 | 0.01 | 0.01 | 56 | 1016.6 |
| 20260906001558 | 70 | 111 | 2.0 | 4.0 | 0.00 | 0.01 | 0.01 | 55 | 1016.6 |
| 20260906000057 | 71 | 0 | 1.0 | 7.0 | 0.00 | 0.01 | 0.01 | 53 | 1016.7 |
| 20260905234554 | 71 | 0 | 1.0 | 6.0 | 0.00 | 0.01 | 0.01 | 53 | 1016.5 |
| 20260905233050 | 70 | 340 | 1.0 | 7.0 | 0.00 | 0.01 | 0.01 | 55 | 1016.7 |
| 20260905231549 | 69 | 269 | 0.0 | 4.0 | 0.00 | 0.01 | 0.01 | 57 | 1016.6 |
| 20260905230055 | 68 | 0 | 1.0 | 6.0 | 0.00 | 0.01 | 0.01 | 60 | 1016.7 |
| 20260905224554 | 67 | 38 | 3.0 | 6.0 | 0.00 | 0.01 | 0.01 | 63 | 1016.9 |
| 20260905223048 | 66 | 154 | 0.0 | 5.0 | 0.00 | 0.01 | 0.01 | 63 | 1017.0 |
| 20260905221554 | 67 | 0 | 2.0 | 5.0 | 0.00 | 0.01 | 0.01 | 61 | 1017.2 |
| 20260905214602 | 68 | 17 | 4.0 | 8.0 | 0.00 | 0.01 | 0.01 | 65 | 1017.4 |
| 20260905213054 | 66 | 164 | 2.0 | 7.0 | 0.00 | 0.01 | 0.01 | 66 | 1017.6 |
| 20260905211553 | 66 | 202 | 2.0 | 6.0 | 0.00 | 0.01 | 0.01 | 66 | 1017.7 |
| 20260905210115 | 67 | 36 | 2.0 | 8.0 | 0.00 | 0.01 | 0.01 | 67 | 1017.7 |
| 20260905204602 | 66 | 5 | 1.0 | 4.0 | 0.00 | 0.01 | 0.01 | 68 | 1017.8 |
| 20260905203055 | 64 | 167 | 2.0 | 6.0 | 0.00 | 0.01 | 0.01 | 72 | 1018.0 |
| 20260905201552 | 64 | 0 | 0.0 | 6.0 | 0.00 | 0.01 | 0.01 | 72 | 1018.1 |
| 20260905200050 | 63 | 181 | 0.0 | 3.0 | 0.00 | 0.01 | 0.01 | 72 | 1018.1 |